Home   Weather   Salalah   Past weeks

Flag for Oman Past Weather in Salalah, Oman — Yesterday and Last 2 Weeks

Now
86 °F

Scattered clouds.


Feels Like: 99 °F
Forecast: 81 / 85 °F
Wind: 2 mph from North

Location: Salalah Airport

Current Time: Jun 26, 2017 at 9:25:16 am

Latest Report: Jun 26, 2017 at 8:50 am


Visibility: N/A

Pressure: 29.68 "Hg

Humidity: 79%

Dew Point: 79 °F

Location of SalalahLocation

Past Weather in Salalah — Graph

°F

Salalah Temperature Yesterday

Maximum temperature yesterday: 88 °F (at 11:50 am)
Minimum temperature yesterday: 82 °F (at 10:50 pm)
Average temperature yesterday: 85 °F

High & Low Weather Summary for the Past Weeks

 TemperatureHumidityPressure
High91 °F (Jun 13, 9:50 am)94% (Jun 20, 9:50 pm)29.71 "Hg (Jun 20, 9:50 pm)
Low82 °F (Jun 17, 2:50 am)63% (Jun 12, 10:50 am)29.53 "Hg (Jun 20, 4:50 pm)
Average86 °F81%29.63 "Hg
* Reported Jun 11 7:50 am — Jun 26 7:50 am, Salalah. Weather by CustomWeather, © 2017

Note: Actual official high and low records may vary slightly from our data, if they occured in-between our weather recording intervals... More about our weather records

Advertising

Salalah Weather History for the Previous 24 Hours

Scroll right to see more
 ConditionsComfort  
Time TempWeatherWind HumidityBarometerVisibility
7:50 am
Mon, Jun 26
84 °FPartly sunny.3 mph84%29.65 "HgN/A
6:50 am84 °FScattered clouds.3 mph84%29.65 "Hg6 mi
5:50 am84 °FPartly cloudy.3 mph84%29.62 "Hg5 mi
4:50 am84 °FPassing clouds.3 mph84%29.62 "Hg6 mi
3:50 am84 °FPassing clouds.3 mph84%29.62 "Hg6 mi
2:50 am84 °FPassing clouds.6 mph84%29.62 "Hg6 mi
1:50 am84 °FPassing clouds.6 mph84%29.62 "Hg6 mi
12:50 am84 °FPassing clouds.9 mph84%29.62 "Hg6 mi
11:50 pm
Sun, Jun 25
82 °FPassing clouds.8 mph89%29.62 "Hg6 mi
10:50 pm82 °FPassing clouds.10 mph94%29.65 "HgN/A
9:50 pm84 °FPassing clouds.10 mph89%29.62 "HgN/A
8:50 pm84 °FPassing clouds.9 mph89%29.62 "HgN/A
7:50 pm84 °FPassing clouds.12 mph89%29.59 "HgN/A
6:50 pm84 °FPartly sunny.14 mph89%29.59 "HgN/A
5:50 pm86 °FScattered clouds.15 mph84%29.56 "HgN/A
4:50 pm88 °FScattered clouds.16 mph79%29.56 "HgN/A
3:50 pm88 °FPartly sunny.18 mph79%29.56 "HgN/A
2:50 pm88 °FPartly sunny.17 mph79%29.56 "HgN/A
1:50 pm88 °FPartly sunny.16 mph79%29.59 "HgN/A
12:50 pm88 °FPartly sunny.18 mph79%29.62 "HgN/A
11:50 am88 °FPartly sunny.16 mph79%29.62 "HgN/A
10:50 am86 °FPartly sunny.16 mph84%29.65 "HgN/A
9:50 am84 °FBroken clouds.12 mph89%29.65 "HgN/A
Weather by CustomWeather, © 2017

See weather overviewHow to use our weather pages